Elsenborn, Belgium

9:50 AM CEST on June 24, 2017 (GMT +0200)
Elsenborn

Weather History for EBLB - May, 2013

Change the Weather History Date:

Saturday, May 25, 2013

  Actual Average Record
Temperature  
Mean Temperature 40 °F -  
Max Temperature 53 °F 58 °F 77 °F (2007)
Min Temperature 27 °F 46 °F 27 °F (2013)
Degree Days  
Heating Degree Days 25    
Moisture  
Dew Point 35 °F    
Average Humidity 76    
Maximum Humidity 93    
Minimum Humidity 41    
Precipitation  
Precipitation 0.01 in - - ()
Sea Level Pressure  
Sea Level Pressure 29.94 in    
Wind  
Wind Speed 6 mph ()    
Max Wind Speed 16 mph    
Max Gust Speed -    
Visibility 7.9 miles    
Events Rain    
Averages and records for this station are not official NWS values.
T = Trace of Precipitation, MM = Missing Value Source: Averaged Metar Reports

Daily Weather History Graph

Daily Weather History Graph

Search for Another Location

Airport or City:

Trip Planner

Search our weather history database for the weather conditions in past years. The results will help you decide how hot, cold, wet, or windy it might be!

Date:

Astronomy

May. 25, 2013 Rise Set
Actual Time 5:35 AM CEST 9:30 PM CEST
Civil Twilight 4:53 AM CEST 10:12 PM CEST
Nautical Twilight 3:54 AM CEST 11:11 PM CEST
Astronomical Twilight 2:13 AM CEST 12:57 AM CEST
Moon 9:59 PM CEST (5/25) 5:49 AM CEST (5/25)
Length of Visible Light 17h 19m
Length of Day
15h 54m
Full, 100% of the Moon is Illuminated
May 25
Full
May 31
Last Quarter
Jun 8
New
Jun 16
First Quarter
Jun 23
Full

Hourly Weather History & Observations

Time (CEST) Temp. Windchill Dew Point Humidity Pressure Visibility Wind Dir Wind Speed Gust Speed Precip Events Conditions
12:25 AM 32.0 °F - 30.2 °F 93% 29.89 in 6.2 mi Variable 1.2 mph - N/A   Scattered Clouds
1:25 AM 32.0 °F - 30.2 °F 93% 29.89 in 6.2 mi Variable 1.2 mph - N/A   Mostly Cloudy
2:00 AM 31 °F - 29 °F 89% 29.98 in 18 mi Calm Calm - -   Clear
2:25 AM 30.2 °F - 28.4 °F 93% 29.89 in 6.2 mi Variable 2.3 mph - N/A   Clear
3:25 AM 30.2 °F - 26.6 °F 86% 29.89 in 6.2 mi Variable 1.2 mph - N/A   Clear
4:25 AM 28.4 °F 24.6 °F 24.8 °F 86% 29.89 in 6.2 mi Variable 3.5 mph - N/A   Clear
5:00 AM 28 °F - 25 °F 83% 30.00 in 19 mi Calm Calm - -   Scattered Clouds
5:25 AM 28.4 °F - 24.8 °F 86% 29.89 in 6.2 mi Variable 2.3 mph - N/A   Partly Cloudy
6:25 AM 28.4 °F - 24.8 °F 86% 29.92 in 6.2 mi Variable 1.2 mph - N/A   Clear
7:25 AM 37.4 °F - 33.8 °F 87% 29.92 in 6.2 mi Variable 1.2 mph - N/A   Clear
8:00 AM 40 °F - 35 °F 78% 29.97 in 16 mi 2.2 mph - -  
8:25 AM 42.8 °F 39.3 °F 35.6 °F 76% 29.92 in 6.2 mi North 5.8 mph - N/A   Clear
9:25 AM 46.4 °F 42.9 °F 35.6 °F 66% 29.92 in 6.2 mi NNE 6.9 mph - N/A   Partly Cloudy
10:25 AM 48.2 °F - 32.0 °F 54% 29.95 in 6.2 mi ENE 9.2 mph - N/A   Partly Cloudy
11:00 AM 49 °F - 33 °F 41% 29.96 in 19 mi North 8.9 mph - -   Scattered Clouds
11:25 AM 46.4 °F 41.9 °F 32.0 °F 57% 29.95 in 6.2 mi North 9.2 mph - N/A   Mostly Cloudy
12:25 PM 46.4 °F 40.7 °F 33.8 °F 62% 29.95 in 6.2 mi North 12.7 mph - N/A   Mostly Cloudy
1:25 PM 50.0 °F - 35.6 °F 58% 29.95 in 6.2 mi NW 11.5 mph - N/A   Scattered Clouds
2:00 PM 48 °F - 33 °F 45% 29.97 in 17 mi NNW 8.9 mph - -   Clear
2:25 PM 46.4 °F 40.7 °F 33.8 °F 62% 29.95 in 6.2 mi North 12.7 mph - N/A   Light Drizzle
3:25 PM 50.0 °F - 33.8 °F 54% 29.95 in 6.2 mi NW 9.2 mph - N/A   Mostly Cloudy
4:25 PM 48.2 °F - 33.8 °F 58% 29.95 in 6.2 mi NW 13.8 mph - N/A   Mostly Cloudy
5:00 PM 49 °F - 33 °F 42% 29.96 in 25 mi NW 15.7 mph - -   Clear
5:25 PM 48.2 °F - 35.6 °F 62% 29.95 in 6.2 mi NW 11.5 mph - N/A   Mostly Cloudy
6:25 PM 48.2 °F - 39.2 °F 71% 29.95 in 6.2 mi NW 13.8 mph - N/A   Scattered Clouds
7:22 PM 44.6 °F 39.7 °F 39.2 °F 81% 29.95 in 6.2 mi WNW 9.2 mph - N/A   Drizzle
7:28 PM 44.6 °F 39.7 °F 39.2 °F 81% 29.95 in 6.2 mi WNW 9.2 mph - N/A Rain Light Rain
7:34 PM 44.6 °F 39.7 °F 41.0 °F 87% 29.95 in 6.2 mi WNW 9.2 mph - N/A Rain Light Rain
7:46 PM 44.6 °F 40.2 °F 41.0 °F 87% 29.95 in 6.2 mi WNW 8.1 mph - N/A   Light Drizzle
8:00 PM 45 °F - 40 °F 78% 29.98 in 12 mi WNW 6.7 mph - - Rain Light Drizzle
8:25 PM 44.6 °F 40.2 °F 41.0 °F 87% 29.95 in 6.2 mi WNW 8.1 mph - N/A Rain Light Rain
8:52 PM 44.6 °F 40.7 °F 39.2 °F 81% 29.95 in 6.2 mi WNW 6.9 mph - N/A Rain Rain Showers
9:02 PM 44.6 °F 38.8 °F 41.0 °F 87% 29.95 in 6.2 mi NW 11.5 mph - N/A Rain Light Rain Showers
9:08 PM 44.6 °F 38.1 °F 39.2 °F 81% 29.95 in 6.2 mi NW 13.8 mph - N/A Rain Light Rain Showers
9:22 PM 42.8 °F 35.4 °F 39.2 °F 87% 29.95 in 6.2 mi WNW 15.0 mph - N/A   Mostly Cloudy
9:25 PM 42.8 °F 35.1 °F 39.2 °F 87% 29.95 in 6.2 mi WNW 16.1 mph - N/A   Mostly Cloudy
9:37 PM 42.8 °F 35.8 °F 39.2 °F 87% 29.95 in 6.2 mi WNW 13.8 mph - N/A   Mostly Cloudy
10:25 PM 41.0 °F 33.1 °F 37.4 °F 87% 29.95 in 6.2 mi WNW 15.0 mph - N/A   Mostly Cloudy
11:00 PM 41 °F - 37 °F 79% 30.01 in 11 mi NW 11.2 mph - -   Clear
11:02 PM 41.0 °F 33.9 °F 37.4 °F 87% 29.98 in 6.2 mi NW 12.7 mph - N/A   Mostly Cloudy
11:25 PM 41.0 °F 34.3 °F 37.4 °F 87% 29.95 in 6.2 mi WNW 11.5 mph - N/A   Mostly Cloudy
11:42 PM 39.2 °F 31.2 °F 35.6 °F 87% 29.95 in 6.2 mi WNW 13.8 mph - N/A   Mostly Cloudy